Time,TemperatureF,DewpointF,PressureIn,WindDirection,WindDirectionDegrees,WindSpeedMPH,WindSpeedGustMPH,Humidity,HourlyPrecipIn,Conditions,Clouds,dailyrainin,SoftwareType,DateUTC
2013-10-13 00:00:00,79.5,67.6,30.03,ENE,68,2.0,2.0,67,0.00,,,0.00,Wunderground v.1.15,2013-10-13 04:00:00,
2013-10-13 00:10:00,79.7,67.8,30.03,East,94,3.0,3.0,67,0.00,,,0.00,Wunderground v.1.15,2013-10-13 04:10:00,
2013-10-13 00:20:00,79.6,67.2,30.03,ENE,72,2.0,2.0,66,0.00,,,0.00,Wunderground v.1.15,2013-10-13 04:20:00,
2013-10-13 00:30:00,79.4,67.0,30.02,East,96,2.0,2.0,66,0.00,,,0.00,Wunderground v.1.15,2013-10-13 04:30:00,
2013-10-13 00:40:00,79.2,67.3,30.02,ENE,77,2.0,4.0,67,0.00,,,0.00,Wunderground v.1.15,2013-10-13 04:40:00,
2013-10-13 00:50:00,79.2,66.9,30.02,ESE,113,2.0,2.0,66,0.00,,,0.00,Wunderground v.1.15,2013-10-13 04:50:00,
2013-10-13 01:00:00,79.1,66.8,30.02,East,82,2.0,2.0,66,0.00,,,0.00,Wunderground v.1.15,2013-10-13 05:00:00,
2013-10-13 01:10:00,79.0,67.1,30.01,East,79,1.0,1.0,67,0.00,,,0.00,Wunderground v.1.15,2013-10-13 05:10:00,
2013-10-13 01:20:00,78.7,66.8,30.01,East,93,1.0,1.0,67,0.00,,,0.00,Wunderground v.1.15,2013-10-13 05:20:00,
2013-10-13 01:30:00,78.8,66.5,30.01,ENE,73,2.0,2.0,66,0.00,,,0.00,Wunderground v.1.15,2013-10-13 05:30:00,
2013-10-13 01:40:00,79.0,66.2,30.01,East,91,2.0,2.0,65,0.00,,,0.00,Wunderground v.1.15,2013-10-13 05:40:00,
2013-10-13 01:50:00,78.8,66.5,30.01,ENE,70,1.0,1.0,66,0.00,,,0.00,Wunderground v.1.15,2013-10-13 05:50:00,
2013-10-13 02:00:00,78.6,66.7,30.01,East,95,0.0,1.0,67,0.00,,,0.00,Wunderground v.1.15,2013-10-13 06:00:00,
2013-10-13 02:10:00,78.8,66.9,30.00,East,90,1.0,1.0,67,0.00,,,0.00,Wunderground v.1.15,2013-10-13 06:10:00,
2013-10-13 02:20:00,78.8,66.9,30.00,East,91,0.0,1.0,67,0.00,,,0.00,Wunderground v.1.15,2013-10-13 06:20:00,
2013-10-13 02:30:00,78.8,66.9,29.99,East,83,1.0,2.0,67,0.00,,,0.00,Wunderground v.1.15,2013-10-13 06:30:00,
2013-10-13 02:40:00,78.7,66.8,29.99,East,86,0.0,0.0,67,0.00,,,0.00,Wunderground v.1.15,2013-10-13 06:40:00,
2013-10-13 02:50:00,78.1,67.5,29.99,NW,320,0.0,1.0,70,0.00,,,0.00,Wunderground v.1.15,2013-10-13 06:50:00,
2013-10-13 03:00:00,76.9,67.6,29.98,NW,322,0.0,0.0,73,0.00,,,0.00,Wunderground v.1.15,2013-10-13 07:00:00,
2013-10-13 03:10:00,76.2,67.3,29.98,NW,322,0.0,0.0,74,0.00,,,0.00,Wunderground v.1.15,2013-10-13 07:10:00,
2013-10-13 03:20:00,75.7,67.2,29.98,NW,321,0.0,0.0,75,0.00,,,0.00,Wunderground v.1.15,2013-10-13 07:20:00,
2013-10-13 03:30:00,75.3,67.2,29.98,NW,322,0.0,0.0,76,0.00,,,0.00,Wunderground v.1.15,2013-10-13 07:30:00,
2013-10-13 03:40:00,75.4,67.3,29.98,NW,320,0.0,0.0,76,0.00,,,0.00,Wunderground v.1.15,2013-10-13 07:40:00,
2013-10-13 03:50:00,74.6,67.7,29.98,West,274,0.0,1.0,79,0.00,,,0.00,Wunderground v.1.15,2013-10-13 07:50:00,
2013-10-13 04:00:00,74.2,68.3,29.98,WNW,284,1.0,1.0,82,0.00,,,0.00,Wunderground v.1.15,2013-10-13 08:00:00,
2013-10-13 04:10:00,74.2,68.3,29.99,WNW,294,1.0,1.0,82,0.00,,,0.00,Wunderground v.1.15,2013-10-13 08:10:00,
2013-10-13 04:20:00,74.7,68.5,29.99,NW,323,2.0,2.0,81,0.00,,,0.00,Wunderground v.1.15,2013-10-13 08:20:00,
2013-10-13 04:30:00,74.9,68.7,29.99,WSW,250,1.0,1.0,81,0.00,,,0.00,Wunderground v.1.15,2013-10-13 08:30:00,
2013-10-13 04:40:00,75.3,68.7,29.99,NE,54,0.0,1.0,80,0.00,,,0.00,Wunderground v.1.15,2013-10-13 08:40:00,
2013-10-13 04:50:00,75.5,69.3,29.99,West,277,1.0,1.0,81,0.00,,,0.00,Wunderground v.1.15,2013-10-13 08:50:00,
2013-10-13 05:00:00,75.2,69.3,29.99,NW,311,1.0,1.0,82,0.00,,,0.00,Wunderground v.1.15,2013-10-13 09:00:00,
2013-10-13 05:10:00,75.1,69.6,29.99,NW,309,2.0,2.0,83,0.00,,,0.00,Wunderground v.1.15,2013-10-13 09:10:00,
2013-10-13 05:20:00,75.0,69.5,29.99,WNW,293,1.0,1.0,83,0.00,,,0.00,Wunderground v.1.15,2013-10-13 09:20:00,
2013-10-13 05:30:00,74.9,69.7,29.99,NW,319,1.0,2.0,84,0.00,,,0.00,Wunderground v.1.15,2013-10-13 09:30:00,
2013-10-13 05:40:00,74.8,69.6,29.99,NW,313,1.0,1.0,84,0.00,,,0.00,Wunderground v.1.15,2013-10-13 09:40:00,
2013-10-13 05:50:00,74.6,69.4,30.00,NW,311,0.0,0.0,84,0.00,,,0.00,Wunderground v.1.15,2013-10-13 09:50:00,
2013-10-13 06:00:00,74.3,69.5,30.00,NW,311,0.0,0.0,85,0.00,,,0.00,Wunderground v.1.15,2013-10-13 10:00:00,
2013-10-13 06:10:00,74.1,69.3,30.00,NW,314,0.0,0.0,85,0.00,,,0.00,Wunderground v.1.15,2013-10-13 10:10:00,
2013-10-13 06:20:00,73.8,69.3,30.00,NW,314,0.0,0.0,86,0.00,,,0.00,Wunderground v.1.15,2013-10-13 10:20:00,
2013-10-13 06:30:00,73.4,69.0,30.00,NW,312,0.0,0.0,86,0.00,,,0.00,Wunderground v.1.15,2013-10-13 10:30:00,
2013-10-13 06:40:00,73.0,68.9,30.01,NW,313,0.0,0.0,87,0.00,,,0.00,Wunderground v.1.15,2013-10-13 10:40:00,
2013-10-13 06:50:00,72.8,68.7,30.01,NW,314,0.0,0.0,87,0.00,,,0.00,Wunderground v.1.15,2013-10-13 10:50:00,
2013-10-13 07:00:00,72.8,68.7,30.01,NW,319,0.0,0.0,87,0.00,,,0.00,Wunderground v.1.15,2013-10-13 11:00:00,
2013-10-13 07:10:00,72.8,68.4,30.01,WNW,295,1.0,1.0,86,0.00,,,0.00,Wunderground v.1.15,2013-10-13 11:10:00,
2013-10-13 07:20:00,72.9,68.5,30.01,WNW,295,1.0,1.0,86,0.00,,,0.00,Wunderground v.1.15,2013-10-13 11:20:00,
2013-10-13 07:30:00,72.8,68.7,30.01,West,281,0.0,0.0,87,0.00,,,0.00,Wunderground v.1.15,2013-10-13 11:30:00,
2013-10-13 07:40:00,72.7,68.6,30.01,WNW,290,0.0,0.0,87,0.00,,,0.00,Wunderground v.1.15,2013-10-13 11:40:00,
2013-10-13 07:50:00,73.0,69.2,30.02,WNW,298,0.0,0.0,88,0.00,,,0.00,Wunderground v.1.15,2013-10-13 11:50:00,
2013-10-13 08:00:00,73.2,69.1,30.02,NNW,332,0.0,0.0,87,0.00,,,0.00,Wunderground v.1.15,2013-10-13 12:00:00,
2013-10-13 08:10:00,73.3,69.2,30.02,NNW,332,0.0,0.0,87,0.00,,,0.00,Wunderground v.1.15,2013-10-13 12:10:00,
2013-10-13 08:20:00,73.5,69.1,30.02,WNW,297,1.0,1.0,86,0.00,,,0.00,Wunderground v.1.15,2013-10-13 12:20:00,
2013-10-13 08:30:00,73.8,69.0,30.03,NNW,330,1.0,1.0,85,0.00,,,0.00,Wunderground v.1.15,2013-10-13 12:30:00,
2013-10-13 08:40:00,74.2,69.4,30.03,North,354,1.0,1.0,85,0.00,,,0.00,Wunderground v.1.15,2013-10-13 12:40:00,
2013-10-13 08:50:00,74.8,69.3,30.04,NW,318,1.0,1.0,83,0.00,,,0.00,Wunderground v.1.15,2013-10-13 12:50:00,
2013-10-13 09:00:00,75.7,69.8,30.04,NW,326,1.0,1.0,82,0.00,,,0.00,Wunderground v.1.15,2013-10-13 13:00:00,
2013-10-13 09:10:00,76.7,70.1,30.04,NNE,19,1.0,2.0,80,0.00,,,0.00,Wunderground v.1.15,2013-10-13 13:10:00,
2013-10-13 09:20:00,77.8,70.0,30.05,North,4,2.0,2.0,77,0.00,,,0.00,Wunderground v.1.15,2013-10-13 13:20:00,
2013-10-13 09:30:00,79.2,70.2,30.05,NW,318,2.0,2.0,74,0.00,,,0.00,Wunderground v.1.15,2013-10-13 13:30:00,
2013-10-13 09:40:00,80.2,70.4,30.05,NW,323,2.0,2.0,72,0.00,,,0.00,Wunderground v.1.15,2013-10-13 13:40:00,
2013-10-13 09:50:00,79.9,70.5,30.05,NW,320,3.0,3.0,73,0.00,,,0.00,Wunderground v.1.15,2013-10-13 13:50:00,
2013-10-13 10:00:00,80.8,70.1,30.05,NW,314,3.0,4.0,70,0.00,,,0.00,Wunderground v.1.15,2013-10-13 14:00:00,
2013-10-13 10:10:00,81.2,70.5,30.06,NNE,29,2.0,2.0,70,0.00,,,0.00,Wunderground v.1.15,2013-10-13 14:10:00,
2013-10-13 10:20:00,81.0,70.3,30.06,NNW,338,3.0,3.0,70,0.00,,,0.00,Wunderground v.1.15,2013-10-13 14:20:00,
2013-10-13 10:30:00,80.6,69.9,30.06,NNW,332,4.0,4.0,70,0.00,,,0.00,Wunderground v.1.15,2013-10-13 14:30:00,
2013-10-13 10:40:00,80.6,69.5,30.06,North,356,3.0,3.0,69,0.00,,,0.00,Wunderground v.1.15,2013-10-13 14:40:00,
2013-10-13 10:50:00,80.6,69.9,30.06,North,1,3.0,4.0,70,0.00,,,0.00,Wunderground v.1.15,2013-10-13 14:50:00,
2013-10-13 11:00:00,80.7,68.7,30.06,NE,36,4.0,4.0,67,0.00,,,0.00,Wunderground v.1.15,2013-10-13 15:00:00,
2013-10-13 11:10:00,81.3,67.5,30.06,North,1,5.0,5.0,63,0.00,,,0.00,Wunderground v.1.15,2013-10-13 15:10:00,
2013-10-13 11:20:00,81.3,67.0,30.06,NE,51,5.0,5.0,62,0.00,,,0.00,Wunderground v.1.15,2013-10-13 15:20:00,
2013-10-13 11:30:00,81.4,66.2,30.06,NE,40,6.0,6.0,60,0.00,,,0.00,Wunderground v.1.15,2013-10-13 15:30:00,
2013-10-13 11:40:00,81.6,65.9,30.06,North,6,6.0,11.0,59,0.00,,,0.00,Wunderground v.1.15,2013-10-13 15:40:00,
2013-10-13 11:50:00,81.7,64.5,30.06,NNE,19,7.0,8.0,56,0.00,,,0.00,Wunderground v.1.15,2013-10-13 15:50:00,
2013-10-13 12:00:00,83.0,64.6,30.06,SE,127,7.0,7.0,54,0.00,,,0.00,Wunderground v.1.15,2013-10-13 16:00:00,
2013-10-13 12:10:00,82.8,64.5,30.05,East,83,8.0,8.0,54,0.00,,,0.00,Wunderground v.1.15,2013-10-13 16:10:00,
2013-10-13 12:20:00,82.6,63.7,30.05,NE,44,8.0,8.0,53,0.00,,,0.00,Wunderground v.1.15,2013-10-13 16:20:00,
2013-10-13 12:30:00,82.5,63.6,30.05,NNE,20,7.0,9.0,53,0.00,,,0.00,Wunderground v.1.15,2013-10-13 16:30:00,
2013-10-13 12:40:00,82.2,62.8,30.05,NNE,28,7.0,8.0,52,0.00,,,0.00,Wunderground v.1.15,2013-10-13 16:40:00,
2013-10-13 12:50:00,81.9,63.6,30.05,NNW,348,8.0,8.0,54,0.00,,,0.00,Wunderground v.1.15,2013-10-13 16:50:00,
2013-10-13 13:00:00,82.0,63.7,30.05,East,98,7.0,7.0,54,0.00,,,0.00,Wunderground v.1.15,2013-10-13 17:00:00,
2013-10-13 13:10:00,82.9,64.5,30.04,NNE,19,8.0,8.0,54,0.00,,,0.00,Wunderground v.1.15,2013-10-13 17:10:00,
2013-10-13 13:20:00,82.9,64.5,30.03,NE,34,8.0,8.0,54,0.00,,,0.00,Wunderground v.1.15,2013-10-13 17:20:00,
2013-10-13 13:30:00,82.5,63.6,30.03,NE,47,9.0,9.0,53,0.00,,,0.00,Wunderground v.1.15,2013-10-13 17:30:00,
2013-10-13 13:40:00,82.8,63.9,30.03,NE,51,9.0,9.0,53,0.00,,,0.00,Wunderground v.1.15,2013-10-13 17:40:00,
2013-10-13 13:50:00,82.8,63.9,30.02,NE,56,9.0,13.0,53,0.00,,,0.00,Wunderground v.1.15,2013-10-13 17:50:00,
2013-10-13 14:00:00,83.1,64.2,30.02,East,81,9.0,9.0,53,0.00,,,0.00,Wunderground v.1.15,2013-10-13 18:00:00,
2013-10-13 14:10:00,83.6,63.6,30.02,NNE,32,8.0,12.0,51,0.00,,,0.00,Wunderground v.1.15,2013-10-13 18:10:00,
2013-10-13 14:20:00,82.5,63.6,30.02,NNE,13,9.0,9.0,53,0.00,,,0.00,Wunderground v.1.15,2013-10-13 18:20:00,
2013-10-13 14:30:00,82.5,63.6,30.01,NE,46,8.0,8.0,53,0.00,,,0.00,Wunderground v.1.15,2013-10-13 18:30:00,
2013-10-13 14:40:00,82.3,63.5,30.01,NNE,15,8.0,8.0,53,0.00,,,0.00,Wunderground v.1.15,2013-10-13 18:40:00,
2013-10-13 14:50:00,82.3,62.9,30.01,ENE,57,7.0,10.0,52,0.00,,,0.00,Wunderground v.1.15,2013-10-13 18:50:00,
2013-10-13 15:00:00,82.3,62.4,30.01,ENE,63,7.0,7.0,51,0.00,,,0.00,Wunderground v.1.15,2013-10-13 19:00:00,
2013-10-13 15:10:00,83.3,63.3,30.00,NE,42,7.0,12.0,51,0.00,,,0.00,Wunderground v.1.15,2013-10-13 19:10:00,
2013-10-13 15:20:00,83.2,62.1,30.00,ENE,62,10.0,10.0,49,0.00,,,0.00,Wunderground v.1.15,2013-10-13 19:20:00,
2013-10-13 15:30:00,83.4,63.4,30.00,NE,37,9.0,11.0,51,0.00,,,0.00,Wunderground v.1.15,2013-10-13 19:30:00,
2013-10-13 15:40:00,83.3,63.8,30.00,NE,51,10.0,10.0,52,0.00,,,0.00,Wunderground v.1.15,2013-10-13 19:40:00,
2013-10-13 15:50:00,83.2,63.2,29.99,NE,37,10.0,11.0,51,0.00,,,0.00,Wunderground v.1.15,2013-10-13 19:50:00,
2013-10-13 16:00:00,83.4,63.9,29.99,North,353,8.0,8.0,52,0.00,,,0.00,Wunderground v.1.15,2013-10-13 20:00:00,
2013-10-13 16:10:00,83.7,65.3,29.99,NNE,28,7.0,15.0,54,0.00,,,0.00,Wunderground v.1.15,2013-10-13 20:10:00,
2013-10-13 16:20:00,83.0,65.2,29.99,ENE,75,10.0,10.0,55,0.00,,,0.00,Wunderground v.1.15,2013-10-13 20:20:00,
2013-10-13 16:30:00,83.0,65.7,29.99,NE,56,8.0,10.0,56,0.00,,,0.00,Wunderground v.1.15,2013-10-13 20:30:00,
2013-10-13 16:40:00,82.9,65.1,29.99,NE,48,8.0,8.0,55,0.00,,,0.00,Wunderground v.1.15,2013-10-13 20:40:00,
2013-10-13 16:50:00,82.7,64.9,29.99,NE,54,8.0,10.0,55,0.00,,,0.00,Wunderground v.1.15,2013-10-13 20:50:00,
2013-10-13 17:00:00,82.8,64.5,29.98,NE,54,8.0,8.0,54,0.00,,,0.00,Wunderground v.1.15,2013-10-13 21:00:00,
2013-10-13 17:10:00,82.4,64.6,29.98,East,79,9.0,13.0,55,0.00,,,0.00,Wunderground v.1.15,2013-10-13 21:10:00,
2013-10-13 17:20:00,82.7,64.4,29.98,NE,53,8.0,8.0,54,0.00,,,0.00,Wunderground v.1.15,2013-10-13 21:20:00,
2013-10-13 17:30:00,82.5,64.2,29.98,NNE,32,8.0,8.0,54,0.00,,,0.00,Wunderground v.1.15,2013-10-13 21:30:00,
2013-10-13 17:40:00,82.4,63.5,29.98,ENE,60,6.0,7.0,53,0.00,,,0.00,Wunderground v.1.15,2013-10-13 21:40:00,
2013-10-13 17:50:00,82.0,63.2,29.98,ENE,63,8.0,11.0,53,0.00,,,0.00,Wunderground v.1.15,2013-10-13 21:50:00,
2013-10-13 18:00:00,81.7,63.4,29.99,NE,46,8.0,8.0,54,0.00,,,0.00,Wunderground v.1.15,2013-10-13 22:00:00,
2013-10-13 18:10:00,81.5,62.7,29.99,NNE,32,7.0,7.0,53,0.00,,,0.00,Wunderground v.1.15,2013-10-13 22:10:00,
2013-10-13 18:20:00,81.1,62.3,29.99,NE,46,7.0,7.0,53,0.00,,,0.00,Wunderground v.1.15,2013-10-13 22:20:00,
2013-10-13 18:30:00,81.2,62.4,29.99,NNE,13,6.0,6.0,53,0.00,,,0.00,Wunderground v.1.15,2013-10-13 22:30:00,
2013-10-13 18:40:00,80.7,63.0,29.99,NE,46,5.0,8.0,55,0.00,,,0.00,Wunderground v.1.15,2013-10-13 22:40:00,
2013-10-13 18:50:00,80.4,63.3,29.99,NE,51,6.0,7.0,56,0.00,,,0.00,Wunderground v.1.15,2013-10-13 22:50:00,
2013-10-13 19:00:00,80.3,63.7,29.99,North,358,6.0,6.0,57,0.00,,,0.00,Wunderground v.1.15,2013-10-13 23:00:00,
2013-10-13 19:10:00,80.1,63.5,29.99,ENE,70,5.0,5.0,57,0.00,,,0.00,Wunderground v.1.15,2013-10-13 23:10:00,
2013-10-13 19:20:00,80.1,64.0,30.00,NE,56,5.0,5.0,58,0.00,,,0.00,Wunderground v.1.15,2013-10-13 23:20:00,
2013-10-13 19:30:00,80.1,64.5,30.00,ENE,67,5.0,5.0,59,0.00,,,0.00,Wunderground v.1.15,2013-10-13 23:30:00,
2013-10-13 19:40:00,79.9,63.3,30.00,ENE,61,4.0,4.0,57,0.00,,,0.00,Wunderground v.1.15,2013-10-13 23:40:00,
2013-10-13 19:50:00,79.9,63.3,30.00,NE,53,5.0,5.0,57,0.00,,,0.00,Wunderground v.1.15,2013-10-13 23:50:00,
2013-10-13 20:00:00,79.9,63.3,30.00,ENE,62,5.0,6.0,57,0.00,,,0.00,Wunderground v.1.15,2013-10-14 00:00:00,
2013-10-13 20:10:00,79.9,64.3,30.00,NE,37,5.0,6.0,59,0.00,,,0.00,Wunderground v.1.15,2013-10-14 00:10:00,
2013-10-13 20:20:00,79.9,64.3,30.00,ENE,71,5.0,5.0,59,0.00,,,0.00,Wunderground v.1.15,2013-10-14 00:20:00,
2013-10-13 20:30:00,80.0,63.9,30.00,NNE,23,6.0,7.0,58,0.00,,,0.00,Wunderground v.1.15,2013-10-14 00:30:00,
2013-10-13 20:40:00,79.9,64.3,30.01,NE,41,4.0,9.0,59,0.00,,,0.00,Wunderground v.1.15,2013-10-14 00:40:00,
2013-10-13 20:50:00,79.8,63.7,30.01,ENE,68,5.0,5.0,58,0.00,,,0.00,Wunderground v.1.15,2013-10-14 00:50:00,
2013-10-13 21:00:00,79.8,64.2,30.01,ENE,66,4.0,7.0,59,0.00,,,0.00,Wunderground v.1.15,2013-10-14 01:00:00,
2013-10-13 21:10:00,79.7,65.5,30.02,NE,54,4.0,4.0,62,0.00,,,0.00,Wunderground v.1.15,2013-10-14 01:10:00,
2013-10-13 21:20:00,79.8,65.6,30.01,NE,51,4.0,4.0,62,0.00,,,0.00,Wunderground v.1.15,2013-10-14 01:20:00,
2013-10-13 21:30:00,79.7,66.4,30.01,NNE,23,4.0,5.0,64,0.00,,,0.00,Wunderground v.1.15,2013-10-14 01:30:00,
2013-10-13 21:40:00,79.7,66.9,30.02,NE,54,4.0,6.0,65,0.00,,,0.00,Wunderground v.1.15,2013-10-14 01:40:00,
2013-10-13 21:50:00,79.7,66.0,30.02,NE,56,4.0,5.0,63,0.00,,,0.00,Wunderground v.1.15,2013-10-14 01:50:00,
2013-10-13 22:00:00,79.7,66.0,30.02,ENE,74,4.0,4.0,63,0.00,,,0.00,Wunderground v.1.15,2013-10-14 02:00:00,
2013-10-13 22:10:00,79.5,66.3,30.02,ENE,74,4.0,6.0,64,0.00,,,0.00,Wunderground v.1.15,2013-10-14 02:10:00,
2013-10-13 22:20:00,79.6,66.3,30.02,ENE,70,5.0,5.0,64,0.00,,,0.00,Wunderground v.1.15,2013-10-14 02:20:00,
2013-10-13 22:30:00,79.6,65.9,30.02,NNE,33,4.0,4.0,63,0.00,,,0.00,Wunderground v.1.15,2013-10-14 02:30:00,
2013-10-13 22:40:00,79.5,65.8,30.03,ENE,68,4.0,4.0,63,0.00,,,0.00,Wunderground v.1.15,2013-10-14 02:40:00,
2013-10-13 22:50:00,79.4,65.7,30.03,NE,51,4.0,4.0,63,0.00,,,0.00,Wunderground v.1.15,2013-10-14 02:50:00,
2013-10-13 23:00:00,79.3,65.6,30.03,NE,37,3.0,6.0,63,0.00,,,0.00,Wunderground v.1.15,2013-10-14 03:00:00,
2013-10-13 23:10:00,79.2,65.5,30.03,ENE,63,3.0,3.0,63,0.00,,,0.00,Wunderground v.1.15,2013-10-14 03:10:00,
2013-10-13 23:20:00,79.0,66.2,30.03,ENE,77,2.0,2.0,65,0.00,,,0.00,Wunderground v.1.15,2013-10-14 03:20:00,
2013-10-13 23:30:00,78.9,66.6,30.03,ENE,74,2.0,2.0,66,0.00,,,0.00,Wunderground v.1.15,2013-10-14 03:30:00,
2013-10-13 23:40:00,78.8,66.9,30.03,ENE,70,2.0,5.0,67,0.00,,,0.00,Wunderground v.1.15,2013-10-14 03:40:00,
2013-10-13 23:50:00,78.9,66.6,30.03,East,88,2.0,2.0,66,0.00,,,0.00,Wunderground v.1.15,2013-10-14 03:50:00,